Location: Cuzcurrita-R�o Tir�n
(42.5415°N, 2.9642°W)
Time: 21:54:54
(UTC+00:00)

ATLAS 2AS CENTAUR R/B - Pass Details

Date: 17 January 2021
Orbit: 947 x 1265 km, 63.7° (Epoch: 13 February)

Event Time Altitude Azimuth Distance (km) Brightness Sun altitude
Rises 18:30:14 0° 247° (WSW) 4,203 7.6 -15.2°
Reaches altitude 10° 18:33:19 10° 256° (WSW) 3,247 6.6 -15.7°
Maximum altitude 18:40:28 36° 321° (NW) 1,887 4.2 -17.0°
Drops below altitude 10° 18:47:32 10° 26° (NNE) 3,192 4.8 -18.3°
Enters shadow 18:48:00 - 28° (NNE) 3,333 4.9 -18.4°
